Fargo, ND

2:33 PM CDT on April 29, 2017 (GMT -0500)
Hector International

Weather History for KFAR - October, 2014

Change the Weather History Date:

Wednesday, October 8, 2014

  Actual Average Record
Temperature  
Mean Temperature 42 °F 49 °F  
Max Temperature 53 °F 60 °F 86 °F (2003)
Min Temperature 30 °F 38 °F 16 °F (1917)
Degree Days  
Heating Degree Days 23 16  
Month to date heating degree days 127 116  
Since 1 July heating degree days 319 386  
Cooling Degree Days 0 0  
Month to date cooling degree days 0 0  
Year to date cooling degree days 544 548  
Moisture  
Dew Point 28 °F    
Average Humidity 60    
Maximum Humidity 85    
Minimum Humidity 35    
Precipitation  
Precipitation 0.00 in 0.07 in 0.98 in (1997)
Month to date precipitation T 0.65  
Year to date precipitation 18.91 19.28  
Snow  
Snow 0.00 in 0.00 in 0.70 in (1927)
Month to date snowfall T 0.0  
Since 1 July snowfall T 0.0  
Since 1 September snowfall T 0.0  
Snow Depth 0.00 in    
Sea Level Pressure  
Sea Level Pressure 30.04 in    
Wind  
Wind Speed 7 mph (NW)    
Max Wind Speed 18 mph    
Max Gust Speed 24 mph    
Visibility 10 miles    
Events      
T = Trace of Precipitation, MM = Missing Value Source: NWS Daily Summary

Daily Weather History Graph

Daily Weather History Graph

Search for Another Location

Airport or City:

Trip Planner

Search our weather history database for the weather conditions in past years. The results will help you decide how hot, cold, wet, or windy it might be!

Date:

Astronomy

Oct. 08, 2014 Rise Set
Actual Time 7:35 AM CDT 6:53 PM CDT
Civil Twilight 7:05 AM CDT 7:23 PM CDT
Nautical Twilight 6:29 AM CDT 7:58 PM CDT
Astronomical Twilight 5:54 AM CDT 8:34 PM CDT
Moon 7:06 PM CDT (10/8) 7:44 AM CDT (10/8)
Length of Visible Light 12h 18m
Length of Day
11h 17m
Full, 100% of the Moon is Illuminated
Oct 8
Full
Oct 15
Last Quarter
Oct 23
New
Oct 30
First Quarter
Nov 6
Full

Hourly Weather History & Observations

Time (CDT) Temp. Windchill Dew Point Humidity Pressure Visibility Wind Dir Wind Speed Gust Speed Precip Events Conditions
12:53 AM 45.0 °F 40.6 °F 32.0 °F 60% 29.89 in 10.0 mi West 8.1 mph - N/A   Overcast
1:53 AM 43.0 °F 38.2 °F 32.0 °F 65% 29.90 in 10.0 mi West 8.1 mph - N/A   Mostly Cloudy
2:53 AM 43.0 °F 38.8 °F 33.1 °F 68% 29.91 in 10.0 mi West 6.9 mph - N/A   Overcast
3:53 AM 39.9 °F 35.1 °F 32.0 °F 73% 29.94 in 10.0 mi NW 6.9 mph - N/A   Overcast
4:53 AM 36.0 °F 32.1 °F 30.0 °F 79% 29.95 in 10.0 mi North 4.6 mph - N/A   Clear
5:53 AM 35.1 °F - 28.9 °F 78% 29.97 in 10.0 mi Calm Calm - N/A   Clear
6:53 AM 30.9 °F 24.3 °F 27.0 °F 85% 29.99 in 10.0 mi West 6.9 mph - N/A   Clear
7:53 AM 30.9 °F 25.2 °F 27.0 °F 85% 30.02 in 10.0 mi NW 5.8 mph - N/A   Clear
8:53 AM 37.0 °F 34.5 °F 30.9 °F 79% 30.04 in 10.0 mi NW 3.5 mph - N/A   Clear
9:53 AM 43.0 °F 36.4 °F 32.0 °F 65% 30.06 in 10.0 mi NW 12.7 mph - N/A   Clear
10:53 AM 46.0 °F 39.9 °F 30.9 °F 56% 30.07 in 10.0 mi NW 13.8 mph - N/A   Clear
11:53 AM 48.9 °F - 28.9 °F 46% 30.09 in 10.0 mi NW 16.1 mph - N/A   Clear
12:53 PM 50.0 °F - 28.0 °F 43% 30.10 in 10.0 mi NW 11.5 mph - N/A   Clear
1:53 PM 51.1 °F - 28.0 °F 41% 30.10 in 10.0 mi NW 12.7 mph - N/A   Clear
2:53 PM 52.0 °F - 27.0 °F 38% 30.09 in 10.0 mi NNW 13.8 mph - N/A   Clear
3:53 PM 53.1 °F - 27.0 °F 37% 30.08 in 10.0 mi NNW 15.0 mph 19.6 mph N/A   Clear
4:53 PM 52.0 °F - 25.0 °F 35% 30.08 in 10.0 mi North 13.8 mph - N/A   Clear
5:53 PM 50.0 °F - 26.1 °F 39% 30.08 in 10.0 mi NNW 9.2 mph - N/A   Clear
6:53 PM 45.0 °F 42.6 °F 25.0 °F 46% 30.09 in 9.0 mi North 4.6 mph - N/A   Clear
7:53 PM 42.1 °F - 26.1 °F 53% 30.11 in 10.0 mi Calm Calm - N/A   Clear
8:53 PM 37.9 °F - 25.0 °F 60% 30.12 in 10.0 mi Calm Calm - N/A   Clear
9:53 PM 37.4 °F - 24.8 °F 60% 30.11 in 10.0 mi Calm Calm - N/A   Clear
10:53 PM 32.0 °F - 23.0 °F 69% 30.16 in 10.0 mi Calm Calm - N/A   Clear
11:53 PM 32.0 °F 27.5 °F 23.0 °F 69% 30.17 in 10.0 mi NNW 4.6 mph - N/A   Clear